TOM888 ENML-LFBZ

Flight info

Callsign TOM888
Flight time 2h 54m
Altitude 37000
Route OGDIT DCT ULVOS DCT NOREM DCT SUTEB DCT BERGI DCT DENOX N872 CIV UM617 ROBAL DCT CMB DCT DUCRA UM728 RESMI UN857 DISAK DCT FOUCO DCT BAKTA DCT MAGEC
Aircraft B738/M-SDE2E3FGHIRWXY/LB1

Departure

Time 2026-04-20 14:59
Airport Molde Airport, Årø (ENML)

Arrival

Time 2026-04-20 17:54
Airport Biarritz Pays Basque airport (LFBZ)
Time Latitude Longitude Altitude Speed Heading
2026-04-20 14:33 62.74620 7.26236 22 ft 0 kts 340°
2026-04-20 14:51 62.74619 7.26237 22 ft 2 kts 340°
2026-04-20 14:51 62.74607 7.26247 24 ft 4 kts 340°
2026-04-20 14:52 62.74583 7.26252 24 ft 4 kts 33°
2026-04-20 14:52 62.74569 7.26210 22 ft 4 kts 70°
2026-04-20 14:52 62.74564 7.26182 21 ft 0 kts 70°
2026-04-20 14:55 62.74565 7.26185 21 ft 1 kts 70°
2026-04-20 14:55 62.74566 7.26208 21 ft 2 kts 88°
2026-04-20 14:55 62.74560 7.26235 20 ft 3 kts 127°
2026-04-20 14:56 62.74522 7.26278 18 ft 11 kts 159°
2026-04-20 14:56 62.74513 7.26467 18 ft 18 kts 71°
2026-04-20 14:56 62.74571 7.26836 18 ft 36 kts 71°
2026-04-20 14:56 62.74670 7.27463 18 ft 47 kts 70°
2026-04-20 14:57 62.74772 7.28115 18 ft 43 kts 71°
2026-04-20 14:57 62.74853 7.28646 17 ft 16 kts 83°
2026-04-20 14:57 62.74861 7.28761 14 ft 5 kts 29°
2026-04-20 14:57 62.74875 7.28720 16 ft 4 kts 247°
2026-04-20 14:58 62.74858 7.28664 16 ft 4 kts 247°
2026-04-20 14:58 62.74852 7.28622 18 ft 4 kts 251°
2026-04-20 14:58 62.74760 7.28036 18 ft 79 kts 251°
2026-04-20 14:58 62.74502 7.26388 19 ft 148 kts 250°
2026-04-20 14:59 62.74122 7.24068 581 ft 163 kts 252°
2026-04-20 14:59 62.73764 7.21752 1544 ft 161 kts 253°
2026-04-20 14:59 62.73402 7.19354 2254 ft 179 kts 253°
2026-04-20 14:59 62.72970 7.16528 2569 ft 212 kts 252°
2026-04-20 15:00 62.72644 7.14438 2806 ft 225 kts 252°
2026-04-20 15:00 62.72119 7.11125 3374 ft 240 kts 252°
2026-04-20 15:00 62.71548 7.07561 3904 ft 256 kts 251°
2026-04-20 15:00 62.70755 7.02634 5160 ft 262 kts 250°
2026-04-20 15:01 62.69860 6.99198 6130 ft 265 kts 225°
2026-04-20 15:01 62.68298 6.97105 7079 ft 268 kts 196°
2026-04-20 15:01 62.67049 6.96740 7668 ft 271 kts 176°
2026-04-20 15:01 62.65254 6.97737 8592 ft 273 kts 155°
2026-04-20 15:02 62.63572 6.99676 9531 ft 276 kts 150°
2026-04-20 15:02 62.61890 7.01776 10408 ft 282 kts 150°
2026-04-20 15:02 62.60164 7.03942 11014 ft 296 kts 150°
2026-04-20 15:02 62.58293 7.06262 11218 ft 323 kts 151°
2026-04-20 15:03 62.56260 7.08753 11502 ft 346 kts 151°
2026-04-20 15:03 62.54133 7.11329 12158 ft 354 kts 151°
2026-04-20 15:03 62.51969 7.13935 12993 ft 357 kts 151°
2026-04-20 15:03 62.49794 7.16414 13837 ft 360 kts 158°
2026-04-20 15:04 62.47337 7.17413 14600 ft 363 kts 181°
2026-04-20 15:04 62.44868 7.16465 15440 ft 363 kts 199°
2026-04-20 15:04 62.42521 7.14455 16179 ft 366 kts 202°
2026-04-20 15:04 62.40161 7.12288 16883 ft 371 kts 203°
2026-04-20 15:05 62.37777 7.10073 17561 ft 375 kts 203°
2026-04-20 15:05 62.35365 7.07843 18285 ft 379 kts 202°
2026-04-20 15:05 62.32931 7.05620 18978 ft 382 kts 203°
2026-04-20 15:05 62.30471 7.03394 19625 ft 385 kts 203°
2026-04-20 15:06 62.28027 7.01199 20257 ft 387 kts 203°
2026-04-20 15:06 62.25531 6.98969 20881 ft 390 kts 203°
2026-04-20 15:06 62.23018 6.96733 21501 ft 393 kts 203°
2026-04-20 15:06 62.20485 6.94485 22105 ft 396 kts 203°
2026-04-20 15:07 62.17933 6.92225 22701 ft 399 kts 203°
2026-04-20 15:07 62.15358 6.89949 23291 ft 402 kts 204°
2026-04-20 15:07 62.12764 6.87661 23849 ft 405 kts 204°
2026-04-20 15:07 62.10151 6.85360 24359 ft 408 kts 204°
2026-04-20 15:08 62.07554 6.83077 24800 ft 411 kts 203°
2026-04-20 15:08 62.04901 6.80750 25225 ft 414 kts 203°
2026-04-20 15:08 62.02230 6.78411 25655 ft 417 kts 203°
2026-04-20 15:08 61.99537 6.76057 26076 ft 420 kts 203°
2026-04-20 15:09 61.96825 6.73691 26490 ft 423 kts 203°
2026-04-20 15:09 61.94095 6.71313 26887 ft 425 kts 202°
2026-04-20 15:09 61.91346 6.68923 27291 ft 428 kts 202°
2026-04-20 15:09 61.88578 6.66521 27677 ft 431 kts 202°
2026-04-20 15:10 61.85832 6.64145 27995 ft 434 kts 202°
2026-04-20 15:10 61.82942 6.62261 28322 ft 438 kts 188°
2026-04-20 15:10 61.79890 6.62133 28699 ft 440 kts 179°
2026-04-20 15:10 61.76824 6.62304 29096 ft 442 kts 179°
2026-04-20 15:11 61.73743 6.62423 29473 ft 443 kts 180°
2026-04-20 15:11 61.70656 6.62507 29895 ft 444 kts 180°
2026-04-20 15:11 61.67562 6.62569 30310 ft 445 kts 180°
2026-04-20 15:11 61.64476 6.62620 30768 ft 443 kts 180°
2026-04-20 15:12 61.61399 6.62667 31157 ft 442 kts 180°
2026-04-20 15:12 61.58360 6.62711 31460 ft 443 kts 180°
2026-04-20 15:12 61.55268 6.62757 31738 ft 445 kts 179°
2026-04-20 15:12 61.52169 6.62803 32072 ft 445 kts 179°
2026-04-20 15:13 61.49070 6.62851 32419 ft 445 kts 179°
2026-04-20 15:13 61.45970 6.62899 32731 ft 446 kts 179°
2026-04-20 15:13 61.42861 6.62947 33039 ft 447 kts 179°
2026-04-20 15:13 61.39748 6.62995 33371 ft 447 kts 179°
2026-04-20 15:14 61.36633 6.63043 33700 ft 448 kts 179°
2026-04-20 15:14 61.33555 6.63091 34006 ft 449 kts 179°
2026-04-20 15:14 61.30430 6.63139 34321 ft 449 kts 178°
2026-04-20 15:14 61.27306 6.63188 34621 ft 450 kts 178°
2026-04-20 15:15 61.24175 6.63236 34859 ft 450 kts 178°
2026-04-20 15:15 61.21038 6.63284 35106 ft 451 kts 178°
2026-04-20 15:15 61.17896 6.63332 35339 ft 452 kts 178°
2026-04-20 15:15 61.14757 6.63380 35679 ft 449 kts 178°
2026-04-20 15:16 61.11640 6.63426 36017 ft 447 kts 178°
2026-04-20 15:16 61.08519 6.63474 36165 ft 450 kts 178°
2026-04-20 15:16 61.05419 6.63522 36287 ft 453 kts 178°
2026-04-20 15:16 61.02263 6.63571 36518 ft 453 kts 178°
2026-04-20 15:17 60.99109 6.63619 36789 ft 453 kts 178°
2026-04-20 15:17 60.95953 6.63666 36985 ft 454 kts 178°
2026-04-20 15:17 60.92785 6.63714 37158 ft 456 kts 178°
2026-04-20 15:17 60.89615 6.63762 37369 ft 456 kts 178°
2026-04-20 15:18 60.86434 6.63810 37486 ft 459 kts 178°
2026-04-20 15:18 60.80013 6.63907 37477 ft 462 kts 178°
2026-04-20 15:19 60.73664 6.63999 37465 ft 456 kts 178°
2026-04-20 15:19 60.67342 6.64092 37483 ft 454 kts 178°
2026-04-20 15:20 60.61028 6.64186 37476 ft 453 kts 178°
2026-04-20 15:20 60.54720 6.64280 37485 ft 453 kts 178°
2026-04-20 15:21 60.48457 6.64372 37474 ft 453 kts 178°
2026-04-20 15:21 60.42148 6.64465 37477 ft 454 kts 178°
2026-04-20 15:22 60.35828 6.64557 37487 ft 455 kts 178°
2026-04-20 15:22 60.29491 6.64649 37490 ft 456 kts 178°
2026-04-20 15:23 60.23145 6.64741 37499 ft 456 kts 178°
2026-04-20 15:23 60.16831 6.64831 37492 ft 457 kts 178°
2026-04-20 15:24 60.10469 6.64923 37488 ft 458 kts 178°
2026-04-20 15:24 60.04101 6.65014 37511 ft 458 kts 178°
2026-04-20 15:25 59.97730 6.65104 37512 ft 458 kts 178°
2026-04-20 15:25 59.91406 6.65194 37509 ft 458 kts 178°
2026-04-20 15:26 59.85039 6.65284 37499 ft 457 kts 178°
2026-04-20 15:26 59.78681 6.65374 37503 ft 457 kts 178°
2026-04-20 15:27 59.72325 6.65463 37482 ft 456 kts 178°
2026-04-20 15:27 59.66022 6.65550 37487 ft 456 kts 178°
2026-04-20 15:28 59.59678 6.65639 37482 ft 456 kts 178°
2026-04-20 15:28 59.53342 6.65187 37467 ft 458 kts 188°
2026-04-20 15:29 59.47091 6.62833 37480 ft 457 kts 189°
2026-04-20 15:29 59.40890 6.60405 37488 ft 457 kts 189°
2026-04-20 15:30 59.34640 6.58031 37475 ft 457 kts 188°
2026-04-20 15:30 59.28387 6.55714 37474 ft 458 kts 188°
2026-04-20 15:31 59.22125 6.53416 37476 ft 458 kts 188°
2026-04-20 15:31 59.15856 6.51126 37472 ft 459 kts 188°
2026-04-20 15:32 59.09620 6.48853 37472 ft 460 kts 188°
2026-04-20 15:32 59.03326 6.46568 37471 ft 460 kts 188°
2026-04-20 15:33 58.97023 6.44287 37458 ft 461 kts 188°
2026-04-20 15:33 58.90715 6.42012 37459 ft 461 kts 188°
2026-04-20 15:34 58.84446 6.39760 37458 ft 462 kts 188°
2026-04-20 15:34 58.78124 6.37497 37455 ft 462 kts 188°
2026-04-20 15:35 58.71800 6.35243 37457 ft 462 kts 188°
2026-04-20 15:35 58.65469 6.32993 37448 ft 463 kts 188°
2026-04-20 15:36 58.59175 6.30766 37450 ft 463 kts 188°
2026-04-20 15:36 58.52841 6.28532 37442 ft 463 kts 188°
2026-04-20 15:37 58.46505 6.26306 37453 ft 463 kts 188°
2026-04-20 15:37 58.40176 6.24090 37442 ft 462 kts 188°
2026-04-20 15:38 58.33850 6.21884 37445 ft 462 kts 188°
2026-04-20 15:38 58.27573 6.19703 37446 ft 462 kts 188°
2026-04-20 15:39 58.21256 6.17515 37455 ft 461 kts 188°
2026-04-20 15:39 58.14940 6.15336 37452 ft 461 kts 188°
2026-04-20 15:40 58.08634 6.13168 37452 ft 461 kts 188°
2026-04-20 15:40 58.02371 6.11022 37459 ft 461 kts 188°
2026-04-20 15:41 57.96060 6.08868 37451 ft 461 kts 188°
2026-04-20 15:41 57.89748 6.06722 37455 ft 461 kts 188°
2026-04-20 15:42 57.83432 6.04582 37447 ft 461 kts 188°
2026-04-20 15:42 57.77113 6.02448 37451 ft 462 kts 188°
2026-04-20 15:43 57.70785 6.00318 37439 ft 462 kts 187°
2026-04-20 15:43 57.64493 5.98209 37443 ft 463 kts 188°
2026-04-20 15:44 57.58153 5.96090 37439 ft 463 kts 187°
2026-04-20 15:44 57.51811 5.93979 37437 ft 463 kts 188°
2026-04-20 15:45 57.45460 5.91872 37427 ft 464 kts 187°
2026-04-20 15:45 57.39146 5.89785 37430 ft 464 kts 188°
2026-04-20 15:46 57.32792 5.87691 37421 ft 464 kts 187°
2026-04-20 15:46 57.26434 5.85604 37425 ft 464 kts 187°
2026-04-20 15:47 57.20077 5.83523 37416 ft 464 kts 187°
2026-04-20 15:47 57.13765 5.81465 37408 ft 464 kts 187°
2026-04-20 15:48 57.07410 5.79400 37417 ft 463 kts 187°
2026-04-20 15:48 57.01058 5.77343 37402 ft 463 kts 187°
2026-04-20 15:49 56.94684 5.75780 37415 ft 461 kts 184°
2026-04-20 15:49 56.88294 5.74704 37397 ft 461 kts 183°
2026-04-20 15:50 56.81944 5.73646 37398 ft 461 kts 183°
2026-04-20 15:50 56.75556 5.72517 37392 ft 461 kts 184°
2026-04-20 15:51 56.69173 5.71357 37399 ft 461 kts 184°
2026-04-20 15:51 56.62785 5.70194 37386 ft 461 kts 184°
2026-04-20 15:52 56.56439 5.69043 37384 ft 461 kts 184°
2026-04-20 15:52 56.50054 5.67891 37382 ft 461 kts 184°
2026-04-20 15:53 56.40473 5.66170 37386 ft 461 kts 184°
2026-04-20 15:53 56.34131 5.65036 37368 ft 461 kts 184°
2026-04-20 15:54 56.27744 5.63898 37367 ft 461 kts 184°
2026-04-20 15:54 56.21360 5.62764 37366 ft 461 kts 184°
2026-04-20 15:55 56.14979 5.61634 37372 ft 461 kts 184°
2026-04-20 15:55 56.08643 5.60516 37362 ft 461 kts 184°
2026-04-20 15:56 56.02265 5.59394 37363 ft 460 kts 184°
2026-04-20 15:56 55.95891 5.58277 37358 ft 460 kts 184°
2026-04-20 15:57 55.89523 5.57164 37359 ft 460 kts 184°
2026-04-20 15:57 55.83154 5.56055 37355 ft 460 kts 184°
2026-04-20 15:58 55.76829 5.54957 37356 ft 460 kts 184°
2026-04-20 15:58 55.70468 5.53857 37350 ft 459 kts 184°
2026-04-20 15:59 55.64102 5.52759 37347 ft 460 kts 184°
2026-04-20 15:59 55.57733 5.51665 37346 ft 460 kts 184°
2026-04-20 16:00 55.51362 5.50573 37349 ft 460 kts 184°
2026-04-20 16:00 55.45025 5.49491 37345 ft 461 kts 184°
2026-04-20 16:01 55.38636 5.48404 37350 ft 461 kts 184°
2026-04-20 16:01 55.32243 5.47319 37337 ft 462 kts 184°
2026-04-20 16:02 55.25837 5.46235 37339 ft 462 kts 184°
2026-04-20 16:02 55.19470 5.45162 37331 ft 463 kts 184°
2026-04-20 16:03 55.13059 5.44085 37336 ft 463 kts 184°
2026-04-20 16:03 55.06641 5.43009 37330 ft 463 kts 184°
2026-04-20 16:04 55.00221 5.41888 37328 ft 464 kts 187°
2026-04-20 16:04 54.93956 5.39134 37322 ft 465 kts 195°
2026-04-20 16:05 54.87794 5.35954 37329 ft 465 kts 195°
2026-04-20 16:05 54.81575 5.32792 37313 ft 466 kts 195°
2026-04-20 16:06 54.75342 5.29695 37327 ft 466 kts 195°
2026-04-20 16:06 54.69103 5.26632 37314 ft 466 kts 195°
2026-04-20 16:07 54.62897 5.23598 37315 ft 467 kts 195°
2026-04-20 16:07 54.56644 5.20549 37313 ft 467 kts 195°
2026-04-20 16:08 54.50393 5.17509 37294 ft 467 kts 195°
2026-04-20 16:08 54.44139 5.14477 37314 ft 467 kts 195°
2026-04-20 16:09 54.37885 5.11454 37304 ft 467 kts 195°
2026-04-20 16:09 54.31683 5.08467 37302 ft 466 kts 195°
2026-04-20 16:10 54.25443 5.05470 37306 ft 465 kts 195°
2026-04-20 16:10 54.19213 5.02487 37284 ft 465 kts 195°
2026-04-20 16:11 54.12996 4.99520 37295 ft 464 kts 196°
2026-04-20 16:11 54.06823 4.96583 37297 ft 463 kts 196°
2026-04-20 16:12 54.00611 4.93637 37289 ft 463 kts 196°
2026-04-20 16:12 53.94400 4.90700 37287 ft 463 kts 196°
2026-04-20 16:13 53.88185 4.87771 37280 ft 464 kts 197°
2026-04-20 16:13 53.82003 4.84865 37286 ft 464 kts 196°
2026-04-20 16:14 53.75772 4.81946 37281 ft 465 kts 196°
2026-04-20 16:14 53.69524 4.79028 37279 ft 466 kts 196°
2026-04-20 16:15 53.63267 4.76115 37283 ft 467 kts 197°
2026-04-20 16:15 53.57004 4.73208 37267 ft 467 kts 197°
2026-04-20 16:16 53.50781 4.70328 37280 ft 467 kts 197°
2026-04-20 16:16 53.44512 4.67436 37267 ft 467 kts 197°
2026-04-20 16:17 53.38243 4.64553 37275 ft 467 kts 197°
2026-04-20 16:17 53.31977 4.61679 37267 ft 467 kts 197°
2026-04-20 16:18 53.25713 4.58816 37250 ft 467 kts 197°
2026-04-20 16:18 53.19493 4.55981 37265 ft 466 kts 197°
2026-04-20 16:19 53.13238 4.53139 37251 ft 466 kts 197°
2026-04-20 16:19 53.06986 4.50307 37253 ft 466 kts 197°
2026-04-20 16:20 53.00735 4.47483 37249 ft 465 kts 197°
2026-04-20 16:20 52.94490 4.44671 37245 ft 465 kts 197°
2026-04-20 16:21 52.88284 4.41884 37248 ft 465 kts 197°
2026-04-20 16:21 52.82036 4.39086 37242 ft 465 kts 197°
2026-04-20 16:22 52.75787 4.36301 37237 ft 466 kts 196°
2026-04-20 16:22 52.69373 4.34617 37242 ft 468 kts 188°
2026-04-20 16:23 52.62928 4.33561 37232 ft 469 kts 187°
2026-04-20 16:23 52.56441 4.32483 37233 ft 469 kts 188°
2026-04-20 16:24 52.49950 4.31332 37231 ft 469 kts 188°
2026-04-20 16:24 52.43455 4.30149 37222 ft 470 kts 188°
2026-04-20 16:25 52.36958 4.28963 37227 ft 470 kts 188°
2026-04-20 16:25 52.30505 4.27792 37225 ft 470 kts 188°
2026-04-20 16:26 52.24003 4.26617 37221 ft 470 kts 188°
2026-04-20 16:26 52.17505 4.25448 37211 ft 470 kts 188°
2026-04-20 16:27 52.11005 4.24281 37215 ft 469 kts 188°
2026-04-20 16:27 52.04514 4.23118 37213 ft 469 kts 188°
2026-04-20 16:28 51.98065 4.21967 37211 ft 469 kts 188°
2026-04-20 16:28 51.91582 4.20814 37211 ft 468 kts 189°
2026-04-20 16:29 51.85103 4.19664 37211 ft 468 kts 189°
2026-04-20 16:29 51.78630 4.18518 37218 ft 468 kts 189°
2026-04-20 16:30 51.72197 4.17383 37199 ft 468 kts 189°
2026-04-20 16:30 51.65724 4.16245 37211 ft 468 kts 189°
2026-04-20 16:31 51.59254 4.15110 37213 ft 468 kts 189°
2026-04-20 16:31 51.52787 4.13978 37211 ft 468 kts 189°
2026-04-20 16:32 51.46316 4.12850 37205 ft 467 kts 190°
2026-04-20 16:32 51.39896 4.11733 37210 ft 467 kts 190°
2026-04-20 16:33 51.33432 4.10611 37209 ft 467 kts 190°
2026-04-20 16:33 51.26965 4.09493 37208 ft 467 kts 190°
2026-04-20 16:34 51.20498 4.08377 37201 ft 467 kts 190°
2026-04-20 16:34 51.14034 4.07265 37208 ft 467 kts 190°
2026-04-20 16:35 51.07605 4.06162 37203 ft 468 kts 190°
2026-04-20 16:35 51.01134 4.05055 37206 ft 468 kts 190°
2026-04-20 16:36 50.94652 4.03949 37204 ft 468 kts 190°
2026-04-20 16:36 50.88198 4.02670 37195 ft 465 kts 197°
2026-04-20 16:37 50.82205 3.99331 37209 ft 458 kts 207°
2026-04-20 16:37 50.76327 3.95416 37199 ft 458 kts 207°
2026-04-20 16:38 50.70430 3.91595 37192 ft 458 kts 207°
2026-04-20 16:38 50.64522 3.87830 37193 ft 458 kts 207°
2026-04-20 16:39 50.58802 3.83594 37187 ft 449 kts 219°
2026-04-20 16:39 50.54223 3.77258 37185 ft 437 kts 235°
2026-04-20 16:40 50.50526 3.69733 37177 ft 435 kts 237°
2026-04-20 16:40 50.46790 3.62279 37186 ft 434 kts 236°
2026-04-20 16:41 50.43037 3.54878 37184 ft 433 kts 236°
2026-04-20 16:41 50.39289 3.47492 37192 ft 433 kts 236°
2026-04-20 16:42 50.35567 3.40170 37181 ft 432 kts 236°
2026-04-20 16:42 50.31824 3.32824 37193 ft 432 kts 236°
2026-04-20 16:43 50.28077 3.25491 37178 ft 431 kts 236°
2026-04-20 16:43 50.24156 3.18375 37170 ft 437 kts 226°
2026-04-20 16:44 50.18918 3.13319 37176 ft 452 kts 207°
2026-04-20 16:44 50.12899 3.10419 37155 ft 458 kts 201°
2026-04-20 16:45 50.06755 3.07720 37175 ft 460 kts 201°
2026-04-20 16:45 50.00594 3.04960 37176 ft 462 kts 202°
2026-04-20 16:46 49.94417 3.02142 37177 ft 464 kts 202°
2026-04-20 16:46 49.88212 2.99301 37160 ft 466 kts 202°
2026-04-20 16:47 49.82028 2.96475 37165 ft 467 kts 202°
2026-04-20 16:47 49.75782 2.93632 37163 ft 468 kts 202°
2026-04-20 16:48 49.69526 2.90794 37142 ft 469 kts 202°
2026-04-20 16:48 49.63267 2.87962 37153 ft 468 kts 202°
2026-04-20 16:49 49.57062 2.85161 37153 ft 468 kts 202°
2026-04-20 16:49 49.50810 2.82346 37159 ft 468 kts 202°
2026-04-20 16:50 49.44570 2.79545 37159 ft 466 kts 202°
2026-04-20 16:50 49.38342 2.76756 37156 ft 466 kts 202°
2026-04-20 16:51 49.32127 2.73979 37154 ft 465 kts 202°
2026-04-20 16:51 49.25960 2.71231 37128 ft 464 kts 202°
2026-04-20 16:52 49.19771 2.68481 37150 ft 463 kts 202°
2026-04-20 16:52 49.13590 2.65741 37154 ft 462 kts 202°
2026-04-20 16:53 49.07418 2.63012 37151 ft 461 kts 202°
2026-04-20 16:53 49.01301 2.60314 37160 ft 460 kts 201°
2026-04-20 16:54 48.95325 2.57089 37155 ft 450 kts 213°
2026-04-20 16:54 48.90106 2.52012 37159 ft 444 kts 219°
2026-04-20 16:55 48.84958 2.46800 37151 ft 445 kts 219°
2026-04-20 16:55 48.79786 2.41654 37131 ft 445 kts 218°
2026-04-20 16:56 48.74597 2.36541 37128 ft 445 kts 218°
2026-04-20 16:56 48.69441 2.31477 37129 ft 445 kts 218°
2026-04-20 16:57 48.64245 2.26381 37131 ft 445 kts 218°
2026-04-20 16:57 48.59034 2.21316 37119 ft 447 kts 215°
2026-04-20 16:58 48.53198 2.17809 37116 ft 460 kts 198°
2026-04-20 16:58 48.46919 2.15882 37100 ft 461 kts 197°
2026-04-20 16:59 48.40674 2.13971 37074 ft 460 kts 197°
2026-04-20 16:59 48.34421 2.11967 37095 ft 459 kts 197°
2026-04-20 17:00 48.24853 2.10529 37094 ft 472 kts 177°
2026-04-20 17:01 48.18394 2.12082 37078 ft 473 kts 177°
2026-04-20 17:01 48.15148 2.12383 37089 ft 463 kts 189°
2026-04-20 17:01 48.12002 2.11706 37107 ft 453 kts 200°
2026-04-20 17:02 48.06260 2.08236 37114 ft 442 kts 212°
2026-04-20 17:02 48.00748 2.04125 37101 ft 443 kts 212°
2026-04-20 17:03 47.95209 2.00063 37099 ft 444 kts 212°
2026-04-20 17:03 47.89693 1.96065 37099 ft 444 kts 212°
2026-04-20 17:04 47.84126 1.92050 37097 ft 445 kts 212°
2026-04-20 17:04 47.78556 1.88044 37048 ft 445 kts 212°
2026-04-20 17:05 47.72989 1.84048 37065 ft 444 kts 212°
2026-04-20 17:05 47.67421 1.80061 37074 ft 444 kts 212°
2026-04-20 17:06 47.61895 1.76112 37065 ft 444 kts 212°
2026-04-20 17:06 47.56336 1.72149 37049 ft 443 kts 211°
2026-04-20 17:07 47.50785 1.68201 37047 ft 442 kts 211°
2026-04-20 17:07 47.45242 1.64267 37044 ft 441 kts 211°
2026-04-20 17:08 47.39745 1.60377 37046 ft 441 kts 211°
2026-04-20 17:08 47.34213 1.56470 37036 ft 440 kts 211°
2026-04-20 17:09 47.28687 1.52576 37049 ft 440 kts 211°
2026-04-20 17:09 47.23163 1.48693 37051 ft 440 kts 211°
2026-04-20 17:10 47.17639 1.44818 37050 ft 440 kts 211°
2026-04-20 17:10 47.12145 1.40975 37041 ft 440 kts 211°
2026-04-20 17:11 47.06613 1.37113 37051 ft 440 kts 211°
2026-04-20 17:11 47.01076 1.33256 37033 ft 441 kts 211°
2026-04-20 17:12 46.95527 1.29400 37020 ft 442 kts 211°
2026-04-20 17:12 46.90009 1.25575 37036 ft 442 kts 211°
2026-04-20 17:13 46.84451 1.21731 37020 ft 442 kts 211°
2026-04-20 17:13 46.78887 1.17891 37023 ft 442 kts 211°
2026-04-20 17:14 46.73322 1.14060 37026 ft 442 kts 211°
2026-04-20 17:14 46.67757 1.10237 37024 ft 442 kts 211°
2026-04-20 17:15 46.62223 1.06444 37020 ft 443 kts 211°
2026-04-20 17:15 46.56650 1.02634 37025 ft 442 kts 211°
2026-04-20 17:16 46.51084 0.98836 37008 ft 442 kts 211°
2026-04-20 17:16 46.45514 0.95045 37010 ft 442 kts 211°
2026-04-20 17:17 46.39980 0.91287 37006 ft 442 kts 211°
2026-04-20 17:17 46.34411 0.87513 36991 ft 442 kts 211°
2026-04-20 17:18 46.28841 0.83747 37002 ft 442 kts 211°
2026-04-20 17:18 46.23272 0.79990 36996 ft 442 kts 211°
2026-04-20 17:19 46.17745 0.76270 36996 ft 441 kts 211°
2026-04-20 17:19 46.13085 0.73140 36983 ft 441 kts 211°
2026-04-20 17:20 46.06623 0.68809 36986 ft 441 kts 211°
2026-04-20 17:20 46.01063 0.65091 36983 ft 441 kts 211°
2026-04-20 17:21 45.95506 0.61384 36958 ft 440 kts 210°
2026-04-20 17:21 45.89991 0.57713 36970 ft 440 kts 211°
2026-04-20 17:22 45.84443 0.54026 36969 ft 439 kts 210°
2026-04-20 17:22 45.78892 0.50346 36969 ft 439 kts 210°
2026-04-20 17:23 45.73419 0.46498 36962 ft 435 kts 215°
2026-04-20 17:23 45.68270 0.42089 36947 ft 434 kts 217°
2026-04-20 17:24 45.63125 0.37579 36951 ft 434 kts 217°
2026-04-20 17:24 45.57961 0.33115 36946 ft 434 kts 216°
2026-04-20 17:25 45.52790 0.28696 36937 ft 433 kts 216°
2026-04-20 17:25 45.47657 0.24334 36939 ft 432 kts 216°
2026-04-20 17:26 45.42490 0.19954 36937 ft 432 kts 216°
2026-04-20 17:26 45.37324 0.15584 36911 ft 432 kts 216°
2026-04-20 17:27 45.32161 0.11224 36919 ft 432 kts 216°
2026-04-20 17:27 45.27866 0.07605 36917 ft 432 kts 216°
2026-04-20 17:28 45.21859 0.02554 36921 ft 432 kts 216°
2026-04-20 17:28 45.16690 -0.01784 36841 ft 433 kts 216°
2026-04-20 17:28 45.14961 -0.03234 36465 ft 437 kts 215°
2026-04-20 17:29 45.12359 -0.05412 35934 ft 434 kts 215°
2026-04-20 17:29 45.09764 -0.07580 35316 ft 433 kts 216°
2026-04-20 17:29 45.07166 -0.09750 34637 ft 434 kts 216°
2026-04-20 17:29 45.03716 -0.12628 33715 ft 436 kts 216°
2026-04-20 17:30 45.01098 -0.14810 32922 ft 437 kts 215°
2026-04-20 17:30 44.99358 -0.16259 32403 ft 438 kts 215°
2026-04-20 17:30 44.96733 -0.18442 31651 ft 438 kts 215°
2026-04-20 17:30 44.94100 -0.20630 30874 ft 440 kts 215°
2026-04-20 17:31 44.91458 -0.22823 30153 ft 440 kts 215°
2026-04-20 17:31 44.88830 -0.24999 29549 ft 436 kts 215°
2026-04-20 17:31 44.85394 -0.27839 28755 ft 429 kts 215°
2026-04-20 17:31 44.82836 -0.29951 28179 ft 424 kts 215°
2026-04-20 17:32 44.81123 -0.31365 27802 ft 420 kts 215°
2026-04-20 17:32 44.78648 -0.33407 27241 ft 416 kts 215°
2026-04-20 17:32 44.76160 -0.35459 26679 ft 412 kts 215°
2026-04-20 17:32 44.73695 -0.37490 26128 ft 409 kts 215°
2026-04-20 17:33 44.71250 -0.39504 25585 ft 406 kts 215°
2026-04-20 17:33 44.68823 -0.41500 25042 ft 403 kts 215°
2026-04-20 17:33 44.66415 -0.43479 24509 ft 400 kts 216°
2026-04-20 17:33 44.64019 -0.45445 23978 ft 398 kts 216°
2026-04-20 17:34 44.61635 -0.47401 23415 ft 396 kts 216°
2026-04-20 17:34 44.59292 -0.49321 22793 ft 394 kts 215°
2026-04-20 17:34 44.56934 -0.51251 22227 ft 391 kts 215°
2026-04-20 17:34 44.54597 -0.53161 21692 ft 387 kts 215°
2026-04-20 17:35 44.52278 -0.55055 21153 ft 384 kts 215°
2026-04-20 17:35 44.49977 -0.56932 20625 ft 381 kts 215°
2026-04-20 17:35 44.47692 -0.58796 20108 ft 379 kts 215°
2026-04-20 17:35 44.45421 -0.60646 19590 ft 376 kts 215°
2026-04-20 17:36 44.43163 -0.62484 19080 ft 375 kts 214°
2026-04-20 17:36 44.40915 -0.64312 18554 ft 373 kts 214°
2026-04-20 17:36 44.38707 -0.66107 18016 ft 372 kts 214°
2026-04-20 17:36 44.36527 -0.67877 17454 ft 370 kts 214°
2026-04-20 17:37 44.34307 -0.69678 16918 ft 368 kts 214°
2026-04-20 17:37 44.32101 -0.71464 16400 ft 365 kts 214°
2026-04-20 17:37 44.29908 -0.73240 15891 ft 363 kts 214°
2026-04-20 17:37 44.27732 -0.74999 15383 ft 360 kts 214°
2026-04-20 17:38 44.25571 -0.76746 14881 ft 358 kts 214°
2026-04-20 17:38 44.23419 -0.78484 14384 ft 356 kts 214°
2026-04-20 17:38 44.21308 -0.80187 13891 ft 354 kts 213°
2026-04-20 17:38 44.19178 -0.81904 13358 ft 352 kts 213°
2026-04-20 17:39 44.17063 -0.83608 12836 ft 350 kts 213°
2026-04-20 17:39 44.14961 -0.85299 12317 ft 348 kts 213°
2026-04-20 17:39 44.12873 -0.86978 11818 ft 345 kts 213°
2026-04-20 17:39 44.10803 -0.88641 11343 ft 342 kts 213°
2026-04-20 17:40 44.08749 -0.90290 10853 ft 340 kts 213°
2026-04-20 17:40 44.06757 -0.91886 10656 ft 329 kts 213°
2026-04-20 17:40 44.04806 -0.93447 10497 ft 318 kts 213°
2026-04-20 17:40 44.02925 -0.94952 10359 ft 307 kts 213°
2026-04-20 17:41 44.01105 -0.96408 10217 ft 297 kts 213°
2026-04-20 17:41 43.99345 -0.97815 10092 ft 287 kts 213°
2026-04-20 17:41 43.97640 -0.99178 9980 ft 279 kts 213°
2026-04-20 17:41 43.95982 -1.00504 9804 ft 273 kts 214°
2026-04-20 17:42 43.94343 -1.01815 9496 ft 271 kts 213°
2026-04-20 17:42 43.92734 -1.03102 9219 ft 269 kts 213°
2026-04-20 17:42 43.91115 -1.04394 8935 ft 268 kts 213°
2026-04-20 17:42 43.89505 -1.05679 8650 ft 266 kts 213°
2026-04-20 17:43 43.87901 -1.06956 8370 ft 265 kts 213°
2026-04-20 17:43 43.86303 -1.08227 8078 ft 265 kts 212°
2026-04-20 17:43 43.84714 -1.09490 7841 ft 262 kts 212°
2026-04-20 17:43 43.83153 -1.10779 7552 ft 260 kts 217°
2026-04-20 17:44 43.81707 -1.12277 7282 ft 259 kts 220°
2026-04-20 17:44 43.80290 -1.13808 7004 ft 258 kts 219°
2026-04-20 17:44 43.78889 -1.15303 6738 ft 258 kts 219°
2026-04-20 17:44 43.77465 -1.16804 6467 ft 257 kts 219°
2026-04-20 17:45 43.76036 -1.18300 6189 ft 257 kts 218°
2026-04-20 17:45 43.74531 -1.19632 5875 ft 259 kts 201°
2026-04-20 17:45 43.72769 -1.20148 5627 ft 258 kts 191°
2026-04-20 17:45 43.70999 -1.20551 5355 ft 258 kts 190°
2026-04-20 17:46 43.69243 -1.20958 5138 ft 254 kts 190°
2026-04-20 17:46 43.67504 -1.21369 4876 ft 253 kts 190°
2026-04-20 17:46 43.65808 -1.21774 4741 ft 247 kts 190°
2026-04-20 17:46 43.64139 -1.22174 4620 ft 240 kts 190°
2026-04-20 17:47 43.62516 -1.22564 4508 ft 233 kts 189°
2026-04-20 17:47 43.60939 -1.22944 4362 ft 228 kts 189°
2026-04-20 17:47 43.59373 -1.23317 4132 ft 228 kts 188°
2026-04-20 17:47 43.57824 -1.23684 3951 ft 223 kts 188°
2026-04-20 17:48 43.56316 -1.24042 3734 ft 217 kts 188°
2026-04-20 17:48 43.54842 -1.24392 3513 ft 211 kts 187°
2026-04-20 17:48 43.53446 -1.24720 3407 ft 202 kts 188°
2026-04-20 17:48 43.52082 -1.25038 3300 ft 198 kts 187°
2026-04-20 17:49 43.50747 -1.25349 3223 ft 192 kts 188°
2026-04-20 17:49 43.49449 -1.25652 3130 ft 188 kts 187°
2026-04-20 17:49 43.48163 -1.26008 3037 ft 191 kts 198°
2026-04-20 17:49 43.47191 -1.27217 2922 ft 195 kts 248°
2026-04-20 17:50 43.47092 -1.29053 2870 ft 194 kts 276°
2026-04-20 17:50 43.47136 -1.30925 2727 ft 196 kts 269°
2026-04-20 17:50 43.47105 -1.32744 2624 ft 189 kts 269°
2026-04-20 17:50 43.47076 -1.34515 2501 ft 181 kts 269°
2026-04-20 17:51 43.47051 -1.36255 2300 ft 182 kts 269°
2026-04-20 17:51 43.47027 -1.37990 2064 ft 181 kts 269°
2026-04-20 17:51 43.47003 -1.39707 1836 ft 178 kts 270°
2026-04-20 17:51 43.46979 -1.41398 1599 ft 174 kts 270°
2026-04-20 17:52 43.46957 -1.43017 1387 ft 164 kts 270°
2026-04-20 17:52 43.46937 -1.44538 1193 ft 152 kts 270°
2026-04-20 17:52 43.46918 -1.45944 971 ft 143 kts 270°
2026-04-20 17:52 43.46903 -1.47271 817 ft 140 kts 270°
2026-04-20 17:53 43.46892 -1.48621 611 ft 142 kts 270°
2026-04-20 17:53 43.46870 -1.49993 411 ft 144 kts 269°
2026-04-20 17:53 43.46848 -1.51346 245 ft 138 kts 269°
2026-04-20 17:53 43.46834 -1.52498 241 ft 93 kts 269°
2026-04-20 17:54 43.46829 -1.53010 246 ft 27 kts 269°
2026-04-20 17:54 43.46875 -1.53146 244 ft 15 kts 334°
2026-04-20 17:54 43.46943 -1.53192 244 ft 5 kts 335°
2026-04-20 17:54 43.46950 -1.53196 244 ft 0 kts 335°
2026-04-20 17:55 43.46954 -1.53198 244 ft 2 kts 340°
2026-04-20 17:55 43.47000 -1.53199 244 ft 10 kts 12°
2026-04-20 17:56 43.47041 -1.53160 244 ft 1 kts 46°
2026-04-20 17:56 43.47055 -1.53146 244 ft 5 kts 32°
2026-04-20 17:56 43.47093 -1.53125 244 ft 5 kts 19°
2026-04-20 17:56 43.47111 -1.53116 244 ft 2 kts 20°
2026-04-20 17:57 43.47114 -1.53114 244 ft 0 kts 20°